| time (UTC) | temp C | wind direction | speed KPH | gust KPH | rain 1hr cm | rain 24hr cm | rain mn cm | humidity % | barometer mb |
| 20260503050505 | 1 | 231 | 0.0 | 0.0 | 0.00 | 0.00 | 0.00 | 83 | 1015.2 |
| 20260503050005 | 1 | 231 | 0.0 | 0.0 | 0.00 | 0.00 | 0.00 | 81 | 1015.3 |
| 20260503045503 | 1 | 231 | 0.0 | 0.0 | 0.00 | 0.00 | 0.00 | 80 | 1015.3 |
| 20260503045005 | 1 | 231 | 0.0 | 0.0 | 0.00 | 0.00 | 0.00 | 81 | 1015.4 |
| 20260503044504 | 1 | 231 | 0.0 | 3.2 | 0.00 | 0.00 | 0.00 | 80 | 1015.4 |
| 20260503044004 | 1 | 231 | 0.0 | 3.2 | 0.00 | 0.00 | 0.00 | 80 | 1015.4 |
| 20260503043504 | 1 | 230 | 0.0 | 3.2 | 0.00 | 0.00 | 0.00 | 79 | 1015.4 |
| 20260503043005 | 1 | 235 | 0.0 | 0.0 | 0.00 | 0.00 | 0.00 | 78 | 1015.4 |
| 20260503042503 | 1 | 235 | 0.0 | 0.0 | 0.00 | 0.00 | 0.00 | 79 | 1015.5 |
| 20260503042003 | 1 | 235 | 0.0 | 0.0 | 0.00 | 0.00 | 0.00 | 79 | 1015.5 |
| 20260503041507 | 1 | 235 | 0.0 | 0.0 | 0.00 | 0.00 | 0.00 | 79 | 1015.5 |
| 20260503041006 | 1 | 235 | 0.0 | 0.0 | 0.00 | 0.00 | 0.00 | 79 | 1015.6 |
| 20260503040506 | 1 | 235 | 0.0 | 0.0 | 0.00 | 0.00 | 0.00 | 78 | 1015.6 |
| 20260503040011 | 1 | 235 | 0.0 | 0.0 | 0.00 | 0.00 | 0.00 | 78 | 1015.7 |
| 20260503035504 | 1 | 235 | 0.0 | 0.0 | 0.00 | 0.00 | 0.00 | 78 | 1015.6 |
| 20260503035007 | 1 | 235 | 0.0 | 0.0 | 0.00 | 0.00 | 0.00 | 78 | 1015.7 |
| 20260503034504 | 1 | 235 | 0.0 | 0.0 | 0.00 | 0.00 | 0.00 | 78 | 1015.7 |
| 20260503034005 | 1 | 235 | 0.0 | 0.0 | 0.00 | 0.00 | 0.00 | 77 | 1015.8 |
| 20260503033504 | 1 | 235 | 0.0 | 0.0 | 0.00 | 0.00 | 0.00 | 77 | 1015.8 |
| 20260503033005 | 1 | 235 | 0.0 | 0.0 | 0.00 | 0.00 | 0.00 | 77 | 1015.9 |
| 20260503032502 | 1 | 235 | 0.0 | 0.0 | 0.00 | 0.00 | 0.00 | 76 | 1016.0 |
| 20260503032002 | 1 | 235 | 0.0 | 0.0 | 0.00 | 0.00 | 0.00 | 76 | 1015.9 |
| 20260503031504 | 1 | 235 | 0.0 | 0.0 | 0.00 | 0.00 | 0.00 | 76 | 1015.9 |
| 20260503031003 | 2 | 235 | 0.0 | 0.0 | 0.00 | 0.00 | 0.00 | 76 | 1016.0 |
| 20260503030503 | 2 | 235 | 0.0 | 0.0 | 0.00 | 0.00 | 0.00 | 75 | 1016.0 |
| 20260503030008 | 2 | 235 | 0.0 | 0.0 | 0.00 | 0.00 | 0.00 | 77 | 1016.1 |
| 20260503025505 | 2 | 235 | 0.0 | 0.0 | 0.00 | 0.00 | 0.00 | 77 | 1016.1 |
| 20260503025004 | 2 | 235 | 0.0 | 0.0 | 0.00 | 0.00 | 0.00 | 76 | 1016.2 |
| 20260503024512 | 2 | 235 | 0.0 | 0.0 | 0.00 | 0.00 | 0.00 | 74 | 1016.2 |
| 20260503024006 | 2 | 235 | 0.0 | 0.0 | 0.00 | 0.00 | 0.00 | 72 | 1016.2 |
| 20260503023504 | 3 | 235 | 0.0 | 0.0 | 0.00 | 0.00 | 0.00 | 72 | 1016.2 |
| 20260503023008 | 3 | 235 | 0.0 | 0.0 | 0.00 | 0.00 | 0.00 | 71 | 1016.1 |
| 20260503022506 | 3 | 235 | 0.0 | 0.0 | 0.00 | 0.00 | 0.00 | 69 | 1016.1 |
| 20260503022010 | 3 | 235 | 0.0 | 3.2 | 0.00 | 0.00 | 0.00 | 68 | 1016.1 |
| 20260503021515 | 3 | 235 | 0.0 | 3.2 | 0.00 | 0.00 | 0.00 | 71 | 1016.1 |
| 20260503021002 | 3 | 235 | 0.0 | 3.2 | 0.00 | 0.00 | 0.00 | 68 | 1016.1 |
| 20260503020502 | 4 | 235 | 0.0 | 3.2 | 0.00 | 0.00 | 0.00 | 64 | 1016.1 |
| 20260503020004 | 4 | 244 | 1.6 | 4.8 | 0.00 | 0.00 | 0.00 | 64 | 1016.1 |
| 20260503015506 | 4 | 244 | 1.6 | 4.8 | 0.00 | 0.00 | 0.00 | 65 | 1016.1 |
| 20260503015007 | 5 | 251 | 0.0 | 3.2 | 0.00 | 0.00 | 0.00 | 65 | 1016.0 |
| 20260503014509 | 5 | 261 | 0.0 | 3.2 | 0.00 | 0.00 | 0.00 | 62 | 1016.0 |
| 20260503014004 | 5 | 228 | 1.6 | 3.2 | 0.00 | 0.00 | 0.00 | 60 | 1016.0 |
| 20260503013505 | 5 | 242 | 1.6 | 3.2 | 0.00 | 0.00 | 0.00 | 60 | 1016.0 |
| 20260503013014 | 5 | 242 | 0.0 | 3.2 | 0.00 | 0.00 | 0.00 | 57 | 1016.0 |
| 20260503012503 | 6 | 258 | 0.0 | 4.8 | 0.00 | 0.00 | 0.00 | 55 | 1016.0 |
| 20260503012003 | 6 | 255 | 0.0 | 6.4 | 0.00 | 0.00 | 0.00 | 56 | 1015.9 |
| 20260503011516 | 6 | 251 | 1.6 | 8.0 | 0.00 | 0.00 | 0.00 | 53 | 1015.9 |
| 20260503011007 | 6 | 250 | 4.8 | 8.0 | 0.00 | 0.00 | 0.00 | 52 | 1016.0 |
| 20260503010504 | 6 | 223 | 3.2 | 4.8 | 0.00 | 0.00 | 0.00 | 52 | 1016.0 |
| 20260503010014 | 6 | 238 | 1.6 | 4.8 | 0.00 | 0.00 | 0.00 | 52 | 1016.0 |
| 20260503005505 | 7 | 230 | 1.6 | 6.4 | 0.00 | 0.00 | 0.00 | 48 | 1016.0 |
| 20260503005002 | 7 | 263 | 3.2 | 8.0 | 0.00 | 0.00 | 0.00 | 48 | 1015.9 |
| 20260503004508 | 7 | 239 | 3.2 | 8.0 | 0.00 | 0.00 | 0.00 | 47 | 1015.9 |
| 20260503004003 | 7 | 315 | 3.2 | 9.7 | 0.00 | 0.00 | 0.00 | 46 | 1015.9 |
| 20260503003506 | 7 | 294 | 4.8 | 9.7 | 0.00 | 0.00 | 0.00 | 45 | 1015.8 |
| 20260503003005 | 7 | 249 | 1.6 | 6.4 | 0.00 | 0.00 | 0.00 | 45 | 1015.8 |
| 20260503002503 | 7 | 239 | 3.2 | 8.0 | 0.00 | 0.00 | 0.00 | 44 | 1015.7 |
| 20260503002004 | 8 | 260 | 1.6 | 11.3 | 0.00 | 0.00 | 0.00 | 47 | 1015.8 |
| 20260503001514 | 8 | 285 | 4.8 | 11.3 | 0.00 | 0.00 | 0.00 | 43 | 1015.7 |
| 20260503001004 | 8 | 225 | 1.6 | 6.4 | 0.00 | 0.00 | 0.00 | 42 | 1015.8 |
| 20260503000504 | 8 | 114 | 1.6 | 11.3 | 0.00 | 0.00 | 0.00 | 42 | 1015.8 |
| 20260503000028 | 8 | 207 | 1.6 | 11.3 | 0.00 | 0.00 | 0.00 | 42 | 1015.9 |
| 20260502235504 | 8 | 242 | 4.8 | 8.0 | 0.00 | 0.00 | 0.00 | 40 | 1015.8 |
| 20260502235004 | 8 | 242 | 1.6 | 8.0 | 0.00 | 0.00 | 0.00 | 41 | 1015.9 |
| 20260502234530 | 8 | 242 | 1.6 | 14.5 | 0.00 | 0.00 | 0.00 | 40 | 1015.8 |
| 20260502234011 | 8 | 265 | 3.2 | 14.5 | 0.00 | 0.00 | 0.00 | 41 | 1015.9 |
| 20260502233504 | 9 | 232 | 6.4 | 9.7 | 0.00 | 0.00 | 0.00 | 40 | 1015.9 |
| 20260502233006 | 9 | 277 | 4.8 | 9.7 | 0.00 | 0.00 | 0.00 | 38 | 1016.0 |
| 20260502232503 | 10 | 46 | 1.6 | 8.0 | 0.00 | 0.00 | 0.00 | 41 | 1016.0 |
| 20260502232004 | 10 | 49 | 1.6 | 6.4 | 0.00 | 0.00 | 0.00 | 39 | 1016.1 |
| 20260502231514 | 10 | 213 | 1.6 | 8.0 | 0.00 | 0.00 | 0.00 | 42 | 1016.1 |
| 20260502231003 | 10 | 207 | 1.6 | 16.1 | 0.00 | 0.00 | 0.00 | 39 | 1016.1 |
| 20260502230507 | 10 | 236 | 4.8 | 16.1 | 0.00 | 0.00 | 0.00 | 41 | 1016.1 |
| 20260502230009 | 10 | 286 | 4.8 | 12.9 | 0.00 | 0.00 | 0.00 | 41 | 1016.2 |
| 20260502225503 | 10 | 312 | 3.2 | 17.7 | 0.00 | 0.00 | 0.00 | 40 | 1016.1 |
| 20260502225007 | 10 | 251 | 3.2 | 17.7 | 0.00 | 0.00 | 0.00 | 41 | 1016.1 |
| 20260502224522 | 10 | 162 | 4.8 | 16.1 | 0.00 | 0.00 | 0.00 | 42 | 1016.2 |
| 20260502224008 | 9 | 300 | 4.8 | 12.9 | 0.00 | 0.00 | 0.00 | 40 | 1016.2 |
| 20260502223508 | 10 | 221 | 4.8 | 25.7 | 0.00 | 0.00 | 0.00 | 40 | 1016.2 |
| 20260502223036 | 10 | 300 | 3.2 | 25.7 | 0.00 | 0.00 | 0.00 | 42 | 1016.2 |
| 20260502222504 | 10 | 211 | 11.3 | 25.7 | 0.00 | 0.00 | 0.00 | 44 | 1016.2 |
| 20260502222007 | 10 | 255 | 9.7 | 17.7 | 0.00 | 0.00 | 0.00 | 42 | 1016.3 |
| 20260502221508 | 10 | 286 | 4.8 | 17.7 | 0.00 | 0.00 | 0.00 | 42 | 1016.3 |
| 20260502221008 | 10 | 323 | 8.0 | 17.7 | 0.00 | 0.00 | 0.00 | 43 | 1016.4 |
| 20260502220506 | 10 | 279 | 3.2 | 14.5 | 0.00 | 0.00 | 0.00 | 43 | 1016.3 |
| 20260502220014 | 10 | 84 | 4.8 | 27.4 | 0.00 | 0.00 | 0.00 | 43 | 1016.3 |
| 20260502215507 | 10 | 248 | 12.9 | 24.1 | 0.00 | 0.00 | 0.00 | 45 | 1016.1 |
| 20260502215007 | 10 | 228 | 4.8 | 19.3 | 0.00 | 0.00 | 0.00 | 42 | 1016.2 |
| 20260502214520 | 10 | 327 | 4.8 | 19.3 | 0.00 | 0.00 | 0.00 | 43 | 1016.4 |
| 20260502214011 | 10 | 267 | 9.7 | 19.3 | 0.00 | 0.00 | 0.00 | 43 | 1016.3 |
| 20260502213508 | 10 | 252 | 9.7 | 25.7 | 0.00 | 0.00 | 0.00 | 45 | 1016.3 |
| 20260502213013 | 9 | 217 | 4.8 | 25.7 | 0.00 | 0.00 | 0.00 | 44 | 1016.3 |
| 20260502212505 | 10 | 231 | 11.3 | 17.7 | 0.00 | 0.00 | 0.00 | 46 | 1016.3 |
| 20260502212011 | 10 | 352 | 9.7 | 16.1 | 0.00 | 0.00 | 0.00 | 45 | 1016.3 |
| 20260502211512 | 10 | 274 | 4.8 | 12.9 | 0.00 | 0.00 | 0.00 | 47 | 1016.3 |
| 20260502211007 | 10 | 180 | 3.2 | 16.1 | 0.00 | 0.00 | 0.00 | 49 | 1016.3 |
| 20260502210511 | 10 | 265 | 8.0 | 25.7 | 0.00 | 0.00 | 0.00 | 46 | 1016.4 |
| 20260502210007 | 10 | 286 | 6.4 | 25.7 | 0.00 | 0.00 | 0.00 | 45 | 1016.4 |
| 20260502205508 | 10 | 242 | 9.7 | 17.7 | 0.00 | 0.00 | 0.00 | 46 | 1016.4 |
| 20260502205002 | 10 | 218 | 6.4 | 17.7 | 0.00 | 0.00 | 0.00 | 50 | 1016.5 |
| 20260502204507 | 10 | 339 | 4.8 | 19.3 | 0.00 | 0.00 | 0.00 | 46 | 1016.6 |
| 20260502204002 | 10 | 273 | 6.4 | 19.3 | 0.00 | 0.00 | 0.00 | 47 | 1016.6 |
| 20260502203502 | 9 | 165 | 1.6 | 17.7 | 0.00 | 0.00 | 0.00 | 48 | 1016.7 |
| 20260502203004 | 10 | 273 | 6.4 | 17.7 | 0.00 | 0.00 | 0.00 | 45 | 1016.7 |
| 20260502202503 | 10 | 192 | 6.4 | 16.1 | 0.00 | 0.00 | 0.00 | 48 | 1016.7 |
| 20260502202004 | 10 | 284 | 6.4 | 17.7 | 0.00 | 0.00 | 0.00 | 48 | 1016.8 |
| 20260502201503 | 10 | 240 | 4.8 | 17.7 | 0.00 | 0.00 | 0.00 | 46 | 1016.8 |
| 20260502201004 | 10 | 25 | 6.4 | 17.7 | 0.00 | 0.00 | 0.00 | 48 | 1016.9 |
| 20260502200503 | 10 | 308 | 6.4 | 17.7 | 0.00 | 0.00 | 0.00 | 47 | 1017.0 |
| 20260502200011 | 9 | 223 | 6.4 | 16.1 | 0.00 | 0.00 | 0.00 | 49 | 1017.1 |
| 20260502195503 | 8 | 224 | 9.7 | 16.1 | 0.00 | 0.00 | 0.00 | 53 | 1017.1 |
| 20260502195003 | 8 | 271 | 8.0 | 16.1 | 0.00 | 0.00 | 0.00 | 52 | 1017.2 |
| 20260502194520 | 8 | 284 | 3.2 | 17.7 | 0.00 | 0.00 | 0.00 | 51 | 1017.2 |
| 20260502194003 | 8 | 266 | 6.4 | 17.7 | 0.00 | 0.00 | 0.00 | 52 | 1017.2 |
| 20260502193504 | 8 | 182 | 4.8 | 19.3 | 0.00 | 0.00 | 0.00 | 50 | 1017.2 |
| 20260502193012 | 8 | 189 | 3.2 | 19.3 | 0.00 | 0.00 | 0.00 | 50 | 1017.4 |
| 20260502192505 | 8 | 241 | 3.2 | 19.3 | 0.00 | 0.00 | 0.00 | 53 | 1017.4 |
| 20260502192003 | 8 | 254 | 11.3 | 19.3 | 0.00 | 0.00 | 0.00 | 51 | 1017.4 |
| 20260502191504 | 8 | 327 | 4.8 | 16.1 | 0.00 | 0.00 | 0.00 | 50 | 1017.5 |
| 20260502191004 | 8 | 46 | 6.4 | 16.1 | 0.00 | 0.00 | 0.00 | 50 | 1017.5 |
| 20260502190504 | 8 | 62 | 4.8 | 20.9 | 0.00 | 0.00 | 0.00 | 51 | 1017.5 |
| 20260502190007 | 8 | 229 | 12.9 | 20.9 | 0.00 | 0.00 | 0.00 | 51 | 1017.6 |
| 20260502185504 | 8 | 242 | 3.2 | 19.3 | 0.00 | 0.00 | 0.00 | 51 | 1017.6 |
| 20260502185003 | 8 | 314 | 3.2 | 14.5 | 0.00 | 0.00 | 0.00 | 52 | 1017.7 |
| 20260502184503 | 8 | 284 | 4.8 | 16.1 | 0.00 | 0.00 | 0.00 | 52 | 1017.7 |
| 20260502184003 | 8 | 67 | 4.8 | 17.7 | 0.00 | 0.00 | 0.00 | 50 | 1017.7 |
| 20260502183506 | 8 | 214 | 9.7 | 17.7 | 0.00 | 0.00 | 0.00 | 50 | 1017.8 |
| 20260502183004 | 8 | 280 | 6.4 | 12.9 | 0.00 | 0.00 | 0.00 | 51 | 1017.8 |
| 20260502182506 | 8 | 238 | 3.2 | 12.9 | 0.00 | 0.00 | 0.00 | 51 | 1017.7 |
| 20260502182006 | 8 | 59 | 6.4 | 12.9 | 0.00 | 0.00 | 0.00 | 49 | 1017.8 |
| 20260502181517 | 8 | 71 | 4.8 | 11.3 | 0.00 | 0.00 | 0.00 | 50 | 1018.0 |
| 20260502181003 | 8 | 135 | 1.6 | 11.3 | 0.00 | 0.00 | 0.00 | 48 | 1018.1 |
| 20260502180503 | 8 | 261 | 6.4 | 11.3 | 0.00 | 0.00 | 0.00 | 53 | 1018.1 |
| 20260502170509 | 7 | 285 | 3.2 | 12.9 | 0.00 | 0.00 | 0.00 | 54 | 1018.5 |
| 20260502164003 | 6 | 257 | 8.0 | 17.7 | 0.00 | 0.00 | 0.00 | 57 | 1018.7 |
| 20260502163504 | 6 | 274 | 6.4 | 14.5 | 0.00 | 0.00 | 0.00 | 56 | 1018.8 |
| 20260502163035 | 7 | 206 | 3.2 | 22.5 | 0.00 | 0.00 | 0.00 | 56 | 1018.8 |
| 20260502162505 | 7 | 15 | 3.2 | 17.7 | 0.00 | 0.00 | 0.00 | 55 | 1018.8 |
| 20260502162011 | 6 | 250 | 4.8 | 14.5 | 0.00 | 0.00 | 0.00 | 54 | 1018.9 |
| 20260502161523 | 6 | 257 | 3.2 | 11.3 | 0.00 | 0.00 | 0.00 | 56 | 1018.9 |
| 20260502161006 | 6 | 292 | 3.2 | 11.3 | 0.00 | 0.00 | 0.00 | 55 | 1018.9 |
| 20260502160506 | 6 | 11 | 4.8 | 8.0 | 0.00 | 0.00 | 0.00 | 54 | 1018.9 |
| 20260502152008 | 5 | 65 | 3.2 | 11.3 | 0.00 | 0.00 | 0.00 | 55 | 1019.1 |
| 20260502151514 | 6 | 283 | 4.8 | 14.5 | 0.00 | 0.00 | 0.00 | 56 | 1019.1 |
| 20260502151003 | 5 | 235 | 6.4 | 14.5 | 0.00 | 0.00 | 0.00 | 56 | 1019.0 |
| 20260502150506 | 5 | 78 | 3.2 | 11.3 | 0.00 | 0.00 | 0.00 | 57 | 1019.0 |
| 20260502130505 | 3 | 61 | 4.8 | 9.7 | 0.00 | 0.00 | 0.00 | 74 | 1019.4 |
| 20260502123507 | 1 | 53 | 1.6 | 11.3 | 0.00 | 0.00 | 0.00 | 82 | 1019.4 |
| 20260502123014 | 1 | 29 | 3.2 | 14.5 | 0.00 | 0.00 | 0.00 | 83 | 1019.5 |
| 20260502122506 | 1 | 80 | 3.2 | 14.5 | 0.00 | 0.00 | 0.00 | 85 | 1019.4 |
| 20260502122011 | 1 | 66 | 6.4 | 12.9 | 0.00 | 0.00 | 0.00 | 86 | 1019.5 |
| 20260502121527 | 1 | 36 | 3.2 | 6.4 | 0.00 | 0.00 | 0.00 | 89 | 1019.3 |
| 20260502121007 | 0 | 54 | 3.2 | 6.4 | 0.00 | 0.00 | 0.00 | 91 | 1019.3 |
| 20260502120514 | 0 | 52 | 0.0 | 4.8 | 0.00 | 0.00 | 0.00 | 93 | 1019.3 |
| 20260502115508 | 0 | 257 | 0.0 | 3.2 | 0.00 | 0.00 | 0.00 | 95 | 1019.2 |
| 20260502115011 | -1 | 333 | 0.0 | 3.2 | 0.00 | 0.00 | 0.00 | 94 | 1019.1 |
| 20260502114525 | -1 | 352 | 0.0 | 3.2 | 0.00 | 0.00 | 0.00 | 94 | 1019.1 |
| 20260502114011 | -1 | 352 | 0.0 | 3.2 | 0.00 | 0.00 | 0.00 | 94 | 1019.0 |
| 20260502113510 | -1 | 352 | 0.0 | 0.0 | 0.00 | 0.00 | 0.00 | 93 | 1019.0 |
| 20260502113034 | -1 | 352 | 0.0 | 0.0 | 0.00 | 0.00 | 0.00 | 93 | 1019.0 |
| 20260502112511 | -1 | 352 | 0.0 | 3.2 | 0.00 | 0.00 | 0.00 | 93 | 1018.9 |
| 20260502112011 | -2 | 352 | 0.0 | 3.2 | 0.00 | 0.00 | 0.00 | 93 | 1018.9 |
| 20260502111528 | -2 | 261 | 0.0 | 3.2 | 0.00 | 0.00 | 0.00 | 93 | 1018.8 |
| 20260502111009 | -2 | 261 | 0.0 | 1.6 | 0.00 | 0.00 | 0.00 | 93 | 1018.8 |
| 20260502110510 | -2 | 261 | 1.6 | 1.6 | 0.00 | 0.00 | 0.00 | 93 | 1018.8 |
| 20260502110028 | -2 | 261 | 0.0 | 1.6 | 0.00 | 0.00 | 0.00 | 93 | 1018.8 |
| 20260502105514 | -2 | 261 | 0.0 | 0.0 | 0.00 | 0.00 | 0.00 | 93 | 1018.8 |
| 20260502105010 | -2 | 261 | 0.0 | 0.0 | 0.00 | 0.00 | 0.00 | 92 | 1018.8 |
| 20260502104530 | -2 | 261 | 0.0 | 0.0 | 0.00 | 0.00 | 0.00 | 92 | 1018.8 |
| 20260502104010 | -2 | 261 | 0.0 | 0.0 | 0.00 | 0.00 | 0.00 | 92 | 1018.8 |
| 20260502103511 | -2 | 261 | 0.0 | 0.0 | 0.00 | 0.00 | 0.00 | 92 | 1018.8 |
| 20260502103031 | -2 | 261 | 0.0 | 0.0 | 0.00 | 0.00 | 0.00 | 92 | 1018.8 |
| 20260502102512 | -2 | 261 | 0.0 | 3.2 | 0.00 | 0.00 | 0.00 | 92 | 1018.8 |
| 20260502102012 | -2 | 261 | 0.0 | 3.2 | 0.00 | 0.00 | 0.00 | 92 | 1018.8 |
| 20260502101528 | -2 | 261 | 0.0 | 3.2 | 0.00 | 0.00 | 0.00 | 92 | 1018.7 |
| 20260502101010 | -2 | 261 | 0.0 | 0.0 | 0.00 | 0.00 | 0.00 | 92 | 1018.6 |
| 20260502100512 | -2 | 261 | 0.0 | 0.0 | 0.00 | 0.00 | 0.00 | 91 | 1018.6 |
| 20260502091531 | -1 | 261 | 0.0 | 0.0 | 0.00 | 0.00 | 0.00 | 90 | 1018.4 |
| 20260502091011 | -1 | 261 | 0.0 | 0.0 | 0.00 | 0.00 | 0.00 | 90 | 1018.3 |
| 20260502090510 | -1 | 261 | 0.0 | 0.0 | 0.00 | 0.00 | 0.00 | 90 | 1018.3 |
| 20260502071532 | -1 | 261 | 0.0 | 0.0 | 0.00 | 0.00 | 0.00 | 89 | 1018.3 |
| 20260502071016 | -1 | 261 | 0.0 | 0.0 | 0.00 | 0.00 | 0.00 | 89 | 1018.2 |
| 20260502070518 | -1 | 261 | 0.0 | 0.0 | 0.00 | 0.00 | 0.00 | 89 | 1018.2 |
| 20260502070047 | -1 | 261 | 0.0 | 0.0 | 0.00 | 0.00 | 0.00 | 89 | 1018.2 |
| 20260502065515 | 0 | 261 | 0.0 | 0.0 | 0.00 | 0.00 | 0.00 | 89 | 1018.3 |
| 20260502065016 | 0 | 261 | 0.0 | 0.0 | 0.00 | 0.00 | 0.00 | 89 | 1018.2 |
| 20260502064542 | 0 | 261 | 0.0 | 0.0 | 0.00 | 0.00 | 0.00 | 88 | 1018.3 |
| 20260502064015 | 0 | 261 | 0.0 | 0.0 | 0.00 | 0.00 | 0.00 | 88 | 1018.3 |
| 20260502063515 | 0 | 261 | 0.0 | 0.0 | 0.00 | 0.00 | 0.00 | 88 | 1018.4 |
| 20260502063035 | 0 | 261 | 0.0 | 0.0 | 0.00 | 0.00 | 0.00 | 88 | 1018.4 |
| 20260502062518 | 0 | 261 | 0.0 | 0.0 | 0.00 | 0.00 | 0.00 | 87 | 1018.4 |
| 20260502062012 | 0 | 261 | 0.0 | 0.0 | 0.00 | 0.00 | 0.00 | 87 | 1018.5 |
| 20260502061535 | 0 | 261 | 0.0 | 0.0 | 0.00 | 0.00 | 0.00 | 86 | 1018.5 |
| 20260502061017 | 0 | 261 | 0.0 | 0.0 | 0.00 | 0.00 | 0.00 | 86 | 1018.5 |
| 20260502060514 | 0 | 261 | 0.0 | 0.0 | 0.00 | 0.00 | 0.00 | 86 | 1018.5 |
| 20260502060005 | 0 | 261 | 0.0 | 0.0 | 0.00 | 0.00 | 0.00 | 86 | 1018.5 |
| 20260502055503 | 0 | 261 | 0.0 | 0.0 | 0.00 | 0.00 | 0.00 | 85 | 1018.5 |
| 20260502055003 | 0 | 261 | 0.0 | 0.0 | 0.00 | 0.00 | 0.00 | 85 | 1018.4 |
| 20260502054502 | 0 | 261 | 0.0 | 0.0 | 0.00 | 0.00 | 0.00 | 85 | 1018.5 |
| 20260502054003 | 0 | 261 | 0.0 | 0.0 | 0.00 | 0.00 | 0.00 | 85 | 1018.5 |
| 20260502053502 | 0 | 261 | 0.0 | 0.0 | 0.00 | 0.00 | 0.00 | 85 | 1018.5 |
| 20260502053003 | 0 | 261 | 0.0 | 0.0 | 0.00 | 0.00 | 0.00 | 84 | 1018.5 |
| 20260502052502 | 0 | 261 | 0.0 | 0.0 | 0.00 | 0.00 | 0.00 | 84 | 1018.5 |
| 20260502052005 | 0 | 261 | 0.0 | 0.0 | 0.00 | 0.00 | 0.00 | 84 | 1018.5 |
| 20260502051505 | 0 | 261 | 0.0 | 0.0 | 0.00 | 0.00 | 0.00 | 82 | 1018.4 |
| 20260502051003 | 0 | 261 | 0.0 | 0.0 | 0.00 | 0.00 | 0.00 | 82 | 1018.4 |